CZ-3C DEB, 39600

Orbit data source: Space-Track

CZ-3C DEB, 39600 is space debris in HEO originally from a launch on Sun, 31 Oct 2010 UTC launched from the Xichang Space Center, China (XSC). Debris objects in space refer to the collection of defunct objects orbiting the Earth. Examples of debris include non-operational satellites, rocket bodies, and fragments generated from explosions, collisions, or faulty payload assembly.

Loading next visibility...
Identifier
39600, 2010-057X
Orbit
HEO
Country
Flag of CNCN / PRC
Related business
Manufacturer
CALT
Mission
Spacecraft
Bus & Motor
Unknown
Mass
Unknown
Launch date (UTC)
2010-10-31 (16 years ago)
Launch vehicle
Unknown
Launch site
Xichang Space Center, China (XSC)
Object type
Payload
Rocket body
Debris
Shape & HBR
Unknown shape, 0.3 m
Radar Cross Section
Medium (>0.1 m² and <1 m²)

Expand to show TLE details & history
Last TLE update: 11 hours ago

TLE from 11 hours ago
0 CZ-3C DEB
1 39600U 10057X   26264.17208395 -.00000112  00000-0  11625-3 0  9999
2 39600  20.2197 297.1332 7223270 103.7553 339.2676  2.25365724105407
Epoch: 2026-09-21T04:07Z
TLE epoch observation values (Epoch: 2026-09-21T04:07:48.053Z)
Latitude
-0.00001°
Longitude
-124.82492°
Altitude
7,786.019 km
Speed
6.329 km/s
True Right ascension
19h 48m 43s
True Declination
0° 00' 00"
Sunlit
Object was in daylight at epoch
Visualization orbit readout
Latitude
Unknown
Longitude
Unknown
Altitude
Unknown
Speed
Unknown
Apparent Right ascension
Unknown
Apparent Declination
Unknown
Sunlit
N/A
Visualization observer readout
Local Sidereal Time
08:06:30
Azimuth
Unknown
Elevation
Unknown
Doppler factor
Unknown
Orbital elements
Apogee altitude
35,954.087 km
Perigee altitude
446.65 km
Semi-major axis
24,578.506 km
Eccentricity
0.72233
Inclination
20.2197°
RAAN
297.1332°
Arg. of periapsis
103.7553°
True anomaly
256.03311°
Mean anomaly
339.2676°
Eccentric anomaly
305.62827°
Mean motion
0.56326 °/min
Orbital period
639.13 mins
BSTAR
0.00011625
Loading maneuver chart data...
Computing Atmospheric mass density...
Loading historical data...
Loading historical data...
Loading historical data...
Loading historical data...
Loading historical data...
Loading historical data...
Loading historical data...

Documentation

Showing up to 5 results
|